Location: Colonia Mina de C?rbuni
(46.1667°N, 22.7167°E)
Time: 21:34:55
(UTC+00:00)

Tiros 1 - Pass Details

Date: 18 April 2024
Orbit: 624 x 657 km, 48.4° (Epoch: 20 May)

Event Time Altitude Azimuth Distance (km) Brightness Sun altitude
Rises 02:44:08 0° 280° (W) 2,912 - -9.3°
Exits shadow 02:45:32 - 282° (WNW) 2,363 9.6 -9.1°
Reaches altitude 10° 02:46:28 10° 283° (WNW) 2,001 9.2 -8.9°
Maximum altitude 02:51:03 69° 7° (N) 672 7.4 -8.2°
Drops below altitude 10° 02:55:37 10° 91° (E) 1,994 10.9 -7.5°
Sets 02:57:57 0° 94° (E) 2,900 11.8 -7.1°
